Dryden, TX

3:49 AM CDT on May 30, 2017 (GMT -0500)
Dryden

Weather History for K6R6 - August, 2013

Change the Weather History Date:

Tuesday, August 27, 2013

  Actual Average (KFST) Record (KFST)
Temperature  
Mean Temperature 83 °F -  
Max Temperature 93 °F 89 °F 105 °F (2002)
Min Temperature 75 °F 67 °F 64 °F (2016)
Cooling Degree Days 18    
Growing Degree Days 33 (Base 50)    
Moisture  
Dew Point 66 °F    
Average Humidity 60    
Maximum Humidity 76    
Minimum Humidity 35    
Precipitation  
Precipitation 0.00 in - - ()
Sea Level Pressure  
Sea Level Pressure 29.96 in    
Wind  
Wind Speed 10 mph (ESE)    
Max Wind Speed 21 mph    
Max Gust Speed 33 mph    
Averages and records for this station are not official NWS values.
T = Trace of Precipitation, MM = Missing Value Source: NWS Daily Summary

Daily Weather History Graph

Daily Weather History Graph

Search for Another Location

Airport or City:

Trip Planner

Search our weather history database for the weather conditions in past years. The results will help you decide how hot, cold, wet, or windy it might be!

Date:

Astronomy

Aug. 27, 2013 Rise Set
Actual Time 7:23 AM CDT 8:16 PM CDT
Civil Twilight 6:58 AM CDT 8:41 PM CDT
Nautical Twilight 6:29 AM CDT 9:10 PM CDT
Astronomical Twilight 5:59 AM CDT 9:39 PM CDT
Moon 12:00 AM CDT (8/27) 1:51 PM CDT (8/27)
Length of Visible Light 13h 42m
Length of Day
12h 53m
Waning Gibbous, 57% of the Moon is Illuminated
Aug 27
Waning Gibbous
Aug 28
Last Quarter
Sep 5
New
Sep 12
First Quarter
Sep 19
Full

Hourly Weather History & Observations

Time (CDT) Temp. Heat Index Dew Point Humidity Pressure Visibility Wind Dir Wind Speed Gust Speed Precip Events Conditions
12:53 AM 80.1 °F 82.3 °F 66.9 °F 64% 29.96 in - SE 11.5 mph - N/A   Unknown
1:53 AM 79.0 °F - 66.9 °F 66% 29.96 in - ESE 6.9 mph - N/A   Unknown
2:53 AM 78.1 °F - 66.9 °F 68% 29.94 in - East 11.5 mph - N/A   Unknown
3:53 AM 78.1 °F - 68.0 °F 71% 29.95 in - East 8.1 mph - N/A   Unknown
4:53 AM 77.0 °F - 66.9 °F 71% 29.94 in - East 8.1 mph - N/A   Unknown
5:53 AM 75.9 °F - 66.9 °F 74% 29.95 in - ENE 9.2 mph - N/A   Unknown
6:53 AM 75.0 °F - 66.9 °F 76% 29.97 in - East 6.9 mph - N/A   Unknown
7:53 AM 75.9 °F - 68.0 °F 76% 29.99 in - East 5.8 mph - N/A   Unknown
8:53 AM 78.1 °F - 68.0 °F 71% 30.00 in - ENE 5.8 mph - N/A   Unknown
9:53 AM 80.1 °F 82.9 °F 69.1 °F 69% 30.00 in - ENE 6.9 mph - N/A   Unknown
10:53 AM 81.0 °F 83.8 °F 68.0 °F 65% 30.01 in - ESE 9.2 mph - N/A   Unknown
11:53 AM 82.9 °F 85.4 °F 66.9 °F 58% 30.01 in - SSE 9.2 mph - N/A   Unknown
12:53 PM 84.9 °F 87.1 °F 66.0 °F 53% 29.99 in - SE 8.1 mph - N/A   Unknown
1:53 PM 88.0 °F 88.7 °F 63.0 °F 43% 29.96 in - SE 10.4 mph 16.1 mph N/A   Unknown
2:53 PM 91.0 °F 90.9 °F 61.0 °F 36% 29.94 in - SE 12.7 mph 23.0 mph N/A   Unknown
3:53 PM 90.0 °F 90.6 °F 63.0 °F 40% 29.92 in - ESE 12.7 mph 23.0 mph N/A   Unknown
4:53 PM 91.9 °F 91.8 °F 61.0 °F 35% 29.90 in - ESE 13.8 mph 21.9 mph N/A   Unknown
5:53 PM 88.0 °F 89.6 °F 64.9 °F 46% 29.90 in - ESE 19.6 mph 33.4 mph N/A   Unknown
6:53 PM 84.9 °F 86.6 °F 64.9 °F 51% 29.91 in - ESE 20.7 mph 29.9 mph N/A   Unknown
7:53 PM 81.0 °F 82.5 °F 64.0 °F 56% 29.93 in - ESE 19.6 mph 25.3 mph N/A   Unknown
8:53 PM 80.1 °F 81.2 °F 62.1 °F 54% 29.94 in - East 11.5 mph 18.4 mph N/A   Unknown
9:53 PM 79.0 °F - 64.9 °F 62% 29.95 in - East 9.2 mph - N/A   Unknown
10:53 PM 78.1 °F - 66.9 °F 68% 29.95 in - East 10.4 mph - N/A   Unknown
11:53 PM 77.0 °F - 66.9 °F 71% 29.97 in - East 8.1 mph - N/A   Unknown